Location: Newark
(34.3481°N, 134.0494°E)
Time: 03:30:26
(UTC+00:00)

Vanguard 3 - Pass Details

Date: 02 February 2020
Orbit: 508 x 3263 km, 33.3° (Epoch: 18 February)

Event Time Altitude Azimuth Distance (km) Brightness Sun altitude
Rises 04:11:01 0° 214° (SW) 5,144 12.1 37.1°
Reaches altitude 10° 04:14:11 10° 207° (SSW) 4,484 12.2 36.9°
Maximum altitude 04:26:39 43° 141° (SE) 3,514 11.2 36.1°
Drops below altitude 10° 04:44:06 10° 78° (ENE) 6,196 11.4 34.7°
Sets 04:49:21 0° 73° (ENE) 7,219 11.6 34.2°
